N8DNY-13 Weather Reports


Display with metric or nautical units.
time (UTC)temp
F
wind
direction
speed
MPH
gust
MPH
rain 1hr
in
rain 24hr
in
rain mn
in
humidity
%
barometer
mb
20260506051324 46 287 0.0 0.0 0.00 0.01 0.01 97 1013.5
20260506044319 47 287 0.0 0.0 0.00 0.01 0.01 97 1013.5
20260506042815 47 287 0.0 0.0 0.07 0.01 0.01 97 1013.4
20260506041310 47 287 0.0 0.0 0.00 0.00 0.00 97 1013.4
20260506035800 47 287 0.0 0.0 0.00 0.29 0.29 97 1013.4
20260506034252 47 287 0.0 0.0 0.00 0.29 0.29 96 1013.6
20260506032750 47 287 0.0 0.0 0.00 0.29 0.29 96 1013.3
20260506031247 47 287 0.0 0.0 0.00 0.29 0.29 96 1013.4
20260506025740 48 295 0.0 0.0 0.05 0.29 0.29 97 1013.1
20260506024230 48 289 0.0 0.0 0.00 0.28 0.28 97 1013.4
20260506022724 49 281 0.0 0.0 0.00 0.28 0.28 97 1013.5
20260506021220 49 277 0.0 0.0 0.07 0.28 0.28 97 1013.5
20260506015710 50 276 0.0 0.0 0.05 0.27 0.27 97 1013.3
20260506014221 50 276 0.0 0.0 0.07 0.26 0.26 97 1013.2
20260506012700 50 274 0.0 0.0 0.05 0.25 0.25 96 1013.0
20260506011156 50 275 0.0 0.0 0.00 0.24 0.24 96 1012.8
20260506005650 50 276 0.0 0.0 0.07 0.24 0.24 96 1012.6
20260506004140 50 279 0.0 0.0 0.00 0.23 0.23 95 1012.7
20260506002633 50 273 0.0 0.0 0.00 0.23 0.23 95 1012.6
20260506001130 50 280 0.0 0.0 0.00 0.22 0.22 95 1012.7
20260505235628 50 275 0.0 0.0 0.07 0.22 0.22 94 1012.7
20260505234125 50 281 0.0 0.0 0.05 0.21 0.21 94 1012.4
20260505232622 50 275 0.0 0.0 0.07 0.20 0.20 93 1012.5
20260505231120 51 272 0.0 1.0 0.00 0.19 0.19 92 1012.5
20260505225630 51 272 0.0 0.0 0.00 0.18 0.18 92 1012.6
20260505224102 51 272 0.0 0.0 0.00 0.18 0.18 91 1012.4
20260505222600 50 273 0.0 0.0 0.00 0.18 0.18 90 1012.4
20260505221114 51 275 0.0 0.0 0.05 0.18 0.18 91 1012.4
20260505215550 50 275 0.0 0.0 0.00 0.17 0.17 91 1012.3
20260505214108 51 288 0.0 0.0 0.07 0.17 0.17 91 1012.2
20260505212547 51 281 0.0 0.0 0.05 0.16 0.16 91 1012.0
20260505211043 51 282 0.0 0.0 0.07 0.15 0.15 91 1012.6
20260505205600 52 283 0.0 0.0 0.00 0.13 0.13 90 1012.5
20260505204038 52 279 0.0 0.0 0.07 0.13 0.13 89 1012.4
20260505202536 52 299 0.0 0.0 0.05 0.12 0.12 89 1012.5
20260505201052 52 286 0.0 0.0 0.00 0.11 0.11 89 1012.6
20260505195530 52 290 0.0 0.0 0.05 0.10 0.10 89 1012.7
20260505194021 53 290 0.0 1.0 0.07 0.09 0.09 89 1012.9
20260505192510 53 289 0.0 0.0 0.07 0.07 0.07 87 1012.9
20260505191003 54 286 0.0 0.0 0.12 0.05 0.05 85 1013.0
20260505185502 55 287 0.0 0.0 0.05 0.03 0.03 81 1012.6
20260505184001 56 286 0.0 0.0 0.00 0.01 0.01 73 1012.2
20260505182500 59 287 0.0 0.0 0.00 0.01 0.01 61 1012.5
20260505181000 60 286 0.0 0.0 0.00 0.01 0.01 53 1012.3
20260505175455 60 289 2.0 3.0 0.00 0.01 0.01 53 1012.0
20260505173950 60 270 0.0 1.0 0.00 0.01 0.01 51 1011.6
20260505172440 60 275 0.0 1.0 0.00 0.01 0.01 52 1011.3
20260505170933 61 282 0.0 1.0 0.00 0.01 0.01 53 1011.7
20260505165450 61 286 0.0 1.0 0.00 0.01 0.01 52 1011.8
20260505163920 61 271 0.0 1.0 0.00 0.01 0.01 52 1011.7
20260505162411 60 276 0.0 1.0 0.00 0.01 0.01 55 1011.9
20260505160910 61 279 0.0 1.0 0.00 0.01 0.01 61 1011.9
20260505152401 62 273 0.0 1.0 0.00 0.01 0.01 66 1011.5
20260505150900 62 297 0.0 2.0 0.00 0.01 0.01 71 1011.6
20260505123820 61 281 0.0 0.0 0.00 0.01 0.01 78 1009.2
20260505122320 61 285 1.0 2.0 0.00 0.01 0.01 78 1009.3
20260505120815 60 261 1.0 3.0 0.00 0.01 0.01 80 1009.1
20260505115314 59 278 0.0 1.0 0.00 0.01 0.01 80 1009.2
20260505113810 58 274 0.0 1.0 0.00 0.01 0.01 82 1008.8
20260505112329 58 261 0.0 1.0 0.00 0.01 0.01 83 1008.5
20260505110806 58 289 0.0 1.0 0.00 0.01 0.01 82 1008.1
20260505100800 58 271 0.0 0.0 0.00 0.01 0.01 84 1007.4
20260505095230 57 269 0.0 0.0 0.00 0.01 0.01 85 1007.0
20260505093723 57 272 0.0 1.0 0.00 0.01 0.01 86 1007.2
20260505092220 58 281 0.0 0.0 0.00 0.01 0.01 86 1007.0
20260505090710 58 268 0.0 1.0 0.00 0.01 0.01 87 1006.7
20260505085221 59 288 0.0 0.0 0.00 0.01 0.01 86 1006.8
20260505083659 59 264 0.0 0.0 0.00 0.00 0.00 85 1006.8
20260505082156 59 284 0.0 1.0 0.00 0.00 0.00 84 1006.8
20260505080650 60 283 0.0 1.0 0.00 0.00 0.00 81 1005.8
20260505075140 61 283 0.0 1.0 0.00 0.00 0.00 77 1006.2
20260505073634 63 274 0.0 1.0 0.00 0.00 0.00 69 1006.0
20260505072150 63 274 1.0 2.0 0.00 0.00 0.00 69 1005.8
20260505070630 63 211 1.0 2.0 0.00 0.00 0.00 69 1005.6
20260505065120 62 270 0.0 1.0 0.00 0.00 0.00 70 1005.7
20260505063614 63 268 2.0 2.0 0.00 0.00 0.00 69 1005.8
20260505062110 62 271 0.0 0.0 0.00 0.00 0.00 70 1006.5
20260505060609 62 270 0.0 1.0 0.00 0.00 0.00 70 1006.6
20260505055100 63 275 0.0 1.0 0.00 0.00 0.00 69 1007.0
20260505053600 64 275 0.0 2.0 0.00 0.00 0.00 68 1007.0